{"data":{"norad_id":43811,"intl_designator":"2018-099BF","name":"NEXTSAT-1","alt_names":[],"object_type":"PAYLOAD","status":"ACTIVE","operator":null,"country":"SKOR","launch_date":"2018-12-03","launch_site_code":"AFWTR","launch_vehicle":null,"mission":null,"orbit_class":"UNKNOWN","rcs_meters":null,"size_class":null,"mass_kg":null,"dimensions":null,"purposes":[],"wikipedia_slug":null,"has_3d_model":false,"image_url":null,"decayed_at":null,"tle_current":{"epoch":"2026-05-25T02:37:59.850336Z","epoch_age_seconds":69553,"freshness":"FRESH","line1":"1 43811U 18099BF  26145.10972049  .00002319  00000+0  15240-3 0  9993","line2":"2 43811  97.4087 188.6353 0013773  61.1295 299.1314 15.08480208408404","mean_motion":15.08480208,"eccentricity":0.0013773,"inclination_deg":97.4087,"raan_deg":188.6353,"arg_perigee_deg":61.1295,"mean_anomaly_deg":299.1314,"bstar":0.0001524,"rev_number":40840,"period_min":95.460317766397,"perigee_km":531.31383611755,"apogee_km":550.37285938347,"semimajor_km":6918.9803477505,"source":"CELESTRAK","updated_at":"2026-05-25T13:37:55.901183Z"}}}